"Pseudo-MPEC" for P115Ofk

Created 2020 Sep 20 17:07:23 UT using Find_Orb

Click here for an explanation of pseudo-MPECs

 
 Astrometry: 
     P115Ofk  C2020 09 12X,Jl2BIB6ulYAstrometry4;J:Tyx0,MB+\5JlDLK+Q==s@9uWhAF51
     P115Ofk  C2020 09 12jV7:pknnUvR_Xgc%e6*pg!g:BZiyI0i%G*PlxxRtTlSuU2`E1f=RF51
     P115Ofk  C2020 09 12Z_3I^\4(;5fk(j^Jd8qgL]MKy88=krVXvredacted;o:0w/Ec!''F51
     P115Ofk  C2020 09 12EeQcWH5DtrLEL7C/dyA`n5JEEo.QiEpubNCwLqJRpvq.sZLr2A76F51
     P115Ofk  C2020 09 13f\+O\6[-9D[6ua-E:$u1fnk8Am$b_:(AyWX6clickv9Ci7X3?g23F51
     P115Ofk  C2020 09 13k.D1Vj#w7'9vuBruyP1OC.?[herefEn_2ZsXh=CyaGvyN6OJ2Gy1F51
     P115Ofk  C2020 09 13wdaurZV^Y$wE^pW'h!forOHV(PFXTX%SexplanationDW=_Risb'F51
     P115Ofk  C2020 09 13R@%wXu/9=0?G2POv-q/g$-xvl*e?lmqfrHDGW^eAW2Sa;p8#A!jEF51
     P115Ofk  C2020 09 14.BuTLasTj^l\M$@lERXSmN#+QD,uC:=?niZAa41EnX'u\B'.4!(7F52
     P115Ofk  C2020 09 14-Y5mTY.qRV:2x!cnu\CW^e9FfMGne.(63dbetQLX+jXSe:wwRb6xF52

Station data:
(F51) Pan-STARRS 1, Haleakala  (N20.707235 W156.255910)  US/Hawaii.
   Observers N. Primak, A. Schultz, S. Watters, J. Thiel, T. Goggia. Measurer
   PS1 Science Consortium. 1.8-m Ritchey-Chrétien + CCD.
(F52) Pan-STARRS 2, Haleakala  (N20.707384 W156.255910)  US/Hawaii. 1.8-m
   Ritchey-Chrétien + CCD.

Orbital elements:  P115Ofk
   Perihelion 2020 Jan 9.185098 +/- 8.52 TT =  4:26:32 (JD 2458857.685098)
Epoch 2020 Sep 14.0 TT = JDT 2459106.5   Earth MOID: 0.6993   Ma: 0.0776
M  93.72115151 +/- 9                (J2000 ecliptic)          AutoNEOCP
n   0.37667017 +/- 0.0365           Peri.   77.51785 +/- 2.4
a   1.89886998 +/- 0.123            Node   158.39358 +/- 1.2
e   0.1813022 +/- 0.0545            Incl.   26.36664 +/- 4.3
P   2.62/955.73d           H 20.7   G  0.15   U 10.5  
q 1.55460066 +/- 0.0184    Q 2.24313931 +/- 0.236
From 10 observations 2020 Sept. 12-14 (47.8 hr); mean residual 0".16
Residuals in arcseconds: 
200912 F51  .13-  .19+    200913 F51  .10-  .11-    200914 F52  .08+  .43+    
200912 F51  .01-  .11-    200913 F51  .08+  .02-    200914 F52  .11-  .40-    
200912 F51  .01+  .11-    200913 F51  .01+  .06+    
200912 F51  .07+  .07+    200913 F51  .14+  .02-    

Ephemerides (geocentric):
Date (UTC) HH   RA              Dec         delta   r     elong  mag " sig PA
---- -- -- --  -------------   -----------  ------ ------ -----  --- ---- ---
2020 09 20 17  23 16 36.881   -17 26 08.13  1.0180 1.9950 161.2 22.9 15.2 177
2020 09 20 18  23 16 34.693   -17 27 00.15  1.0183 1.9951 161.2 22.9 15.4 177
2020 09 20 19  23 16 32.507   -17 27 52.13  1.0185 1.9952 161.1 22.9 15.6 178
2020 09 20 20  23 16 30.323   -17 28 44.05  1.0187 1.9953 161.1 22.9 15.9 178
2020 09 20 21  23 16 28.140   -17 29 35.92  1.0190 1.9954 161.0 22.9 16.1 178
2020 09 20 22  23 16 25.959   -17 30 27.74  1.0192 1.9955 161.0 22.9 16.3 178
2020 09 20 23  23 16 23.780   -17 31 19.50  1.0195 1.9956 160.9 22.9 16.5 178
2020 09 21 00  23 16 21.602   -17 32 11.22  1.0197 1.9956 160.9 22.9 16.7 179
2020 09 21 01  23 16 19.426   -17 33 02.88  1.0200 1.9957 160.8 22.9 16.9 179
2020 09 21 02  23 16 17.252   -17 33 54.49  1.0202 1.9958 160.8 22.9 17.2 179
2020 09 21 03  23 16 15.080   -17 34 46.04  1.0204 1.9959 160.7 22.9 17.4 179
2020 09 21 04  23 16 12.909   -17 35 37.55  1.0207 1.9960 160.7 22.9 17.6 179
2020 09 21 05  23 16 10.741   -17 36 29.00  1.0209 1.9961 160.6 22.9 17.8   0
2020 09 21 06  23 16 08.574   -17 37 20.40  1.0212 1.9962 160.6 22.9 18.1   0
2020 09 21 07  23 16 06.408   -17 38 11.75  1.0214 1.9962 160.5 22.9 18.3   0
2020 09 21 08  23 16 04.245   -17 39 03.05  1.0217 1.9963 160.5 22.9 18.5   0
2020 09 21 09  23 16 02.083   -17 39 54.29  1.0219 1.9964 160.4 22.9 18.8   0
2020 09 21 10  23 15 59.923   -17 40 45.48  1.0222 1.9965 160.4 22.9 19.0   1
2020 09 21 11  23 15 57.765   -17 41 36.62  1.0224 1.9966 160.3 22.9 19.2   1
2020 09 21 12  23 15 55.609   -17 42 27.70  1.0227 1.9967 160.3 22.9 19.5   1
2020 09 21 13  23 15 53.455   -17 43 18.74  1.0229 1.9968 160.2 22.9 19.7   1
2020 09 21 14  23 15 51.302   -17 44 09.72  1.0232 1.9968 160.2 22.9 20.0   1
2020 09 21 15  23 15 49.151   -17 45 00.64  1.0234 1.9969 160.1 22.9 20.2   1
2020 09 21 16  23 15 47.003   -17 45 51.52  1.0237 1.9970 160.1 22.9 20.5   2
2020 09 21 17  23 15 44.855   -17 46 42.34  1.0239 1.9971 160.1 22.9 20.7   2
2020 09 21 18  23 15 42.710   -17 47 33.11  1.0242 1.9972 160.0 22.9 21.0   2
2020 09 21 19  23 15 40.567   -17 48 23.83  1.0244 1.9973 160.0 22.9 21.2   2
2020 09 21 20  23 15 38.425   -17 49 14.49  1.0247 1.9974 159.9 22.9 21.5   2
2020 09 21 21  23 15 36.286   -17 50 05.10  1.0249 1.9974 159.9 22.9 21.8   3
2020 09 21 22  23 15 34.148   -17 50 55.65  1.0252 1.9975 159.8 22.9 22.0   3
2020 09 21 23  23 15 32.012   -17 51 46.16  1.0254 1.9976 159.8 22.9 22.3   3
2020 09 22 00  23 15 29.878   -17 52 36.61  1.0257 1.9977 159.7 22.9 22.6   3
2020 09 22 01  23 15 27.746   -17 53 27.00  1.0259 1.9978 159.7 22.9 22.8   3
2020 09 22 02  23 15 25.616   -17 54 17.35  1.0262 1.9979 159.6 22.9 23.1   3
2020 09 22 03  23 15 23.487   -17 55 07.64  1.0264 1.9980 159.6 22.9 23.4   4
2020 09 22 04  23 15 21.361   -17 55 57.88  1.0267 1.9980 159.5 22.9 23.7   4
2020 09 22 05  23 15 19.236   -17 56 48.06  1.0270 1.9981 159.5 22.9 23.9   4
2020 09 22 06  23 15 17.114   -17 57 38.19  1.0272 1.9982 159.4 22.9 24.2   4
2020 09 22 07  23 15 14.993   -17 58 28.27  1.0275 1.9983 159.4 22.9 24.5   4
2020 09 22 08  23 15 12.874   -17 59 18.29  1.0277 1.9984 159.3 23.0 24.8   4
2020 09 22 09  23 15 10.757   -18 00 08.26  1.0280 1.9985 159.3 23.0 25.1   5
2020 09 22 10  23 15 08.642   -18 00 58.18  1.0282 1.9986 159.2 23.0 25.4   5
2020 09 22 11  23 15 06.530   -18 01 48.04  1.0285 1.9986 159.2 23.0 25.7   5
2020 09 22 12  23 15 04.419   -18 02 37.85  1.0288 1.9987 159.1 23.0 26.0   5
2020 09 22 13  23 15 02.310   -18 03 27.60  1.0290 1.9988 159.1 23.0 26.3   5
2020 09 22 14  23 15 00.202   -18 04 17.30  1.0293 1.9989 159.0 23.0 26.6   5
2020 09 22 15  23 14 58.097   -18 05 06.95  1.0295 1.9990 159.0 23.0 26.9   5
2020 09 22 16  23 14 55.994   -18 05 56.54  1.0298 1.9991 158.9 23.0 27.2   6